Fort Benning, AL

8:24 PM CDT on July 26, 2017 (GMT -0500)
Lawson Army Air Field

Weather History for KLSF - May, 2012

Change the Weather History Date:

Thursday, May 17, 2012

  Actual Average Record
Temperature  
Mean Temperature 72 °F -  
Max Temperature 88 °F 82 °F 91 °F (2000)
Min Temperature 57 °F 57 °F 42 °F (2014)
Cooling Degree Days 6    
Growing Degree Days 22 (Base 50)    
Moisture  
Dew Point 59 °F    
Average Humidity 93    
Maximum Humidity 100    
Minimum Humidity 35    
Precipitation  
Precipitation 0.00 in - - ()
Sea Level Pressure  
Sea Level Pressure 29.93 in    
Wind  
Wind Speed 1 mph (NNW)    
Max Wind Speed 9 mph    
Max Gust Speed -    
Visibility 3 miles    
Events Fog    
Averages and records for this station are not official NWS values.
T = Trace of Precipitation, MM = Missing Value Source: NWS Daily Summary

Daily Weather History Graph

Daily Weather History Graph

Search for Another Location

Airport or City:

Trip Planner

Search our weather history database for the weather conditions in past years. The results will help you decide how hot, cold, wet, or windy it might be!

Date:

Astronomy

May. 17, 2012 Rise Set
Actual Time 6:40 AM EDT 8:32 PM EDT
Civil Twilight 6:13 AM EDT 9:00 PM EDT
Nautical Twilight 5:40 AM EDT 9:32 PM EDT
Astronomical Twilight 5:05 AM EDT 10:07 PM EDT
Moon 4:29 AM EDT (5/17) 5:51 PM EDT (5/17)
Length of Visible Light 14h 46m
Length of Day
13h 52m
Waning Crescent, 10% of the Moon is Illuminated
May 17
Waning Crescent
May 20
New
May 28
First Quarter
Jun 4
Full
Jun 11
Last Quarter

Hourly Weather History & Observations

Time (EDT) Temp. Heat Index Dew Point Humidity Pressure Visibility Wind Dir Wind Speed Gust Speed Precip Events Conditions
12:55 AM 64.0 °F - 61.0 °F 90% 29.96 in 10.0 mi Calm Calm - N/A   Clear
1:55 AM 61.3 °F - 60.3 °F 96% 29.95 in 10.0 mi Calm Calm - N/A   Clear
2:55 AM 61.0 °F - 60.6 °F 99% 29.94 in 9.0 mi Calm Calm - N/A   Clear
3:26 AM 59.0 °F - 59.0 °F 100% 29.94 in 6.0 mi Calm Calm - N/A   Clear
3:29 AM 59.0 °F - 59.0 °F 100% 29.94 in 6.0 mi Calm Calm - N/A   Clear
3:55 AM 59.5 °F - 59.2 °F 99% 29.94 in 7.0 mi Calm Calm - N/A   Clear
4:00 AM 59.0 °F - 59.0 °F 100% 29.93 in 4.0 mi Calm Calm - N/A   Clear
4:02 AM 59.0 °F - 59.0 °F 100% 29.94 in 4.0 mi Calm Calm - N/A   Clear
4:07 AM 59.0 °F - 59.0 °F 100% 29.94 in 2.0 mi Calm Calm - N/A   Clear
4:08 AM 59.0 °F - 59.0 °F 100% 29.94 in 1.8 mi Calm Calm - N/A   Clear
4:09 AM 59.0 °F - 59.0 °F 100% 29.93 in 1.5 mi Calm Calm - N/A   Clear
4:11 AM 59.0 °F - 59.0 °F 100% 29.93 in 1.2 mi Calm Calm - N/A   Clear
4:14 AM 59.0 °F - 59.0 °F 100% 29.93 in 1.0 mi Calm Calm - N/A   Clear
4:15 AM 59.0 °F - 59.0 °F 100% 29.93 in 1.2 mi Calm Calm - N/A   Clear
4:18 AM 59.0 °F - 59.0 °F 100% 29.93 in 1.5 mi Calm Calm - N/A   Clear
4:21 AM 59.0 °F - 59.0 °F 100% 29.93 in 1.2 mi Calm Calm - N/A   Clear
4:23 AM 59.0 °F - 59.0 °F 100% 29.93 in 1.0 mi Calm Calm - N/A   Clear
4:24 AM 59.0 °F - 59.0 °F 100% 29.93 in 0.8 mi Calm Calm - N/A   Clear
4:26 AM 59.0 °F - 59.0 °F 100% 29.93 in 0.5 mi Calm Calm - N/A Fog Fog
4:43 AM 59.0 °F - 59.0 °F 100% 29.93 in 0.5 mi Calm Calm - N/A Fog Fog
4:50 AM 57.2 °F - 57.2 °F 100% 29.93 in 0.5 mi Calm Calm - N/A Fog Fog
4:51 AM 57.2 °F - 57.2 °F 100% 29.93 in 0.8 mi Calm Calm - N/A   Clear
4:54 AM 59.0 °F - 57.2 °F 94% 29.93 in 1.0 mi Calm Calm - N/A   Clear
4:55 AM 58.5 °F - 58.1 °F 99% 29.93 in 1.2 mi Calm Calm - N/A   Clear
4:57 AM 59.0 °F - 59.0 °F 100% 29.93 in 1.5 mi Calm Calm - N/A   Clear
4:58 AM 59.0 °F - 59.0 °F 100% 29.93 in 1.8 mi Calm Calm - N/A   Clear
4:59 AM 59.0 °F - 59.0 °F 100% 29.93 in 2.5 mi Calm Calm - N/A   Clear
5:01 AM 59.0 °F - 59.0 °F 100% 29.93 in 3.0 mi Calm Calm - N/A   Clear
5:03 AM 59.0 °F - 59.0 °F 100% 29.93 in 2.5 mi Calm Calm - N/A   Clear
5:06 AM 59.0 °F - 59.0 °F 100% 29.93 in 1.8 mi Calm Calm - N/A   Clear
5:07 AM 59.0 °F - 59.0 °F 100% 29.93 in 1.5 mi Calm Calm - N/A   Clear
5:08 AM 59.0 °F - 59.0 °F 100% 29.93 in 1.8 mi Calm Calm - N/A   Clear
5:14 AM 59.0 °F - 59.0 °F 100% 29.93 in 2.0 mi Calm Calm - N/A   Clear
5:16 AM 59.0 °F - 59.0 °F 100% 29.93 in 1.8 mi Calm Calm - N/A   Clear
5:17 AM 59.0 °F - 59.0 °F 100% 29.93 in 1.5 mi Calm Calm - N/A   Clear
5:18 AM 59.0 °F - 59.0 °F 100% 29.93 in 1.2 mi Calm Calm - N/A   Clear
5:21 AM 59.0 °F - 59.0 °F 100% 29.93 in 1.0 mi Calm Calm - N/A   Clear
5:26 AM 59.0 °F - 59.0 °F 100% 29.93 in 1.2 mi Calm Calm - N/A   Clear
5:27 AM 59.0 °F - 59.0 °F 100% 29.93 in 1.2 mi Calm Calm - N/A   Clear
5:28 AM 59.0 °F - 59.0 °F 100% 29.93 in 1.5 mi Calm Calm - N/A   Clear
5:30 AM 59.0 °F - 59.0 °F 100% 29.93 in 1.8 mi Calm Calm - N/A   Clear
5:31 AM 59.0 °F - 59.0 °F 100% 29.93 in 2.0 mi Calm Calm - N/A   Clear
5:33 AM 59.0 °F - 59.0 °F 100% 29.93 in 3.0 mi Calm Calm - N/A   Clear
5:44 AM 59.0 °F - 59.0 °F 100% 29.93 in 2.5 mi Calm Calm - N/A   Clear
5:45 AM 59.0 °F - 59.0 °F 100% 29.93 in 1.8 mi Calm Calm - N/A   Clear
5:46 AM 59.0 °F - 59.0 °F 100% 29.93 in 1.5 mi Calm Calm - N/A   Clear
5:47 AM 59.0 °F - 59.0 °F 100% 29.93 in 1.2 mi Calm Calm - N/A   Clear
5:48 AM 59.0 °F - 59.0 °F 100% 29.93 in 1.0 mi Calm Calm - N/A   Clear
5:49 AM 59.0 °F - 57.2 °F 94% 29.93 in 1.0 mi Calm Calm - N/A   Clear
5:50 AM 59.0 °F - 57.2 °F 94% 29.93 in 1.0 mi Calm Calm - N/A   Clear
5:51 AM 59.0 °F - 57.2 °F 94% 29.93 in 1.0 mi Calm Calm - N/A   Clear
5:52 AM 59.0 °F - 59.0 °F 100% 29.93 in 1.0 mi Calm Calm - N/A   Clear
5:54 AM 59.0 °F - 59.0 °F 100% 29.93 in 1.2 mi Calm Calm - N/A   Clear
5:55 AM 58.6 °F - 58.5 °F 99% 29.93 in 1.5 mi Calm Calm - N/A   Clear
5:56 AM 59.0 °F - 59.0 °F 100% 29.93 in 1.8 mi Calm Calm - N/A   Clear
5:57 AM 59.0 °F - 59.0 °F 100% 29.93 in 2.5 mi Calm Calm - N/A   Clear
5:58 AM 59.0 °F - 59.0 °F 100% 29.93 in 3.0 mi Calm Calm - N/A   Clear
6:02 AM 59.0 °F - 59.0 °F 100% 29.93 in 3.0 mi Calm Calm - N/A   Clear
6:04 AM 59.0 °F - 59.0 °F 100% 29.93 in 2.0 mi Calm Calm - N/A   Clear
6:05 AM 59.0 °F - 59.0 °F 100% 29.93 in 1.8 mi Calm Calm - N/A   Clear
6:10 AM 59.0 °F - 59.0 °F 100% 29.93 in 1.5 mi Calm Calm - N/A   Clear
6:14 AM 59.0 °F - 59.0 °F 100% 29.93 in 1.8 mi Calm Calm - N/A   Clear
6:15 AM 59.0 °F - 59.0 °F 100% 29.93 in 2.0 mi Calm Calm - N/A   Clear
6:19 AM 59.0 °F - 59.0 °F 100% 29.93 in 3.0 mi Calm Calm - N/A   Clear
6:22 AM 57.2 °F - 57.2 °F 100% 29.93 in 2.5 mi Calm Calm - N/A   Clear
6:23 AM 57.2 °F - 57.2 °F 100% 29.93 in 1.8 mi Calm Calm - N/A   Clear
6:24 AM 57.2 °F - 57.2 °F 100% 29.93 in 1.5 mi Calm Calm - N/A   Clear
6:25 AM 57.2 °F - 57.2 °F 100% 29.93 in 1.2 mi Calm Calm - N/A   Clear
6:26 AM 57.2 °F - 57.2 °F 100% 29.94 in 1.0 mi Calm Calm - N/A   Clear
6:27 AM 57.2 °F - 57.2 °F 100% 29.94 in 0.8 mi Calm Calm - N/A   Clear
6:28 AM 57.2 °F - 57.2 °F 100% 29.94 in 0.5 mi Calm Calm - N/A Fog Fog
6:29 AM 57.2 °F - 57.2 °F 100% 29.94 in 0.5 mi Calm Calm - N/A Fog Fog
6:30 AM 59.0 °F - 57.2 °F 94% 29.94 in 0.5 mi Calm Calm - N/A Fog Fog
6:31 AM 59.0 °F - 59.0 °F 100% 29.94 in 0.5 mi Calm Calm - N/A Fog Fog
6:32 AM 59.0 °F - 59.0 °F 100% 29.94 in 0.5 mi Calm Calm - N/A Fog Fog
6:35 AM 59.0 °F - 59.0 °F 100% 29.94 in 0.5 mi WNW 3.5 mph - N/A Fog Fog
6:36 AM 59.0 °F - 59.0 °F 100% 29.94 in 0.5 mi WNW 3.5 mph - N/A Fog Fog
6:39 AM 59.0 °F - 57.2 °F 94% 29.94 in 0.8 mi WNW 3.5 mph - N/A   Clear
6:41 AM 57.2 °F - 57.2 °F 100% 29.94 in 1.0 mi WNW 3.5 mph - N/A   Clear
6:42 AM 57.2 °F - 57.2 °F 100% 29.94 in 1.2 mi WNW 3.5 mph - N/A   Clear
6:43 AM 57.2 °F - 57.2 °F 100% 29.94 in 1.5 mi WNW 3.5 mph - N/A   Clear
6:44 AM 57.2 °F - 57.2 °F 100% 29.94 in 2.0 mi WNW 3.5 mph - N/A   Clear
6:46 AM 57.2 °F - 57.2 °F 100% 29.94 in 3.0 mi Calm Calm - N/A   Clear
6:51 AM 57.2 °F - 57.2 °F 100% 29.94 in 2.0 mi Calm Calm - N/A   Clear
6:52 AM 57.2 °F - 57.2 °F 100% 29.94 in 1.2 mi Calm Calm - N/A   Clear
6:53 AM 57.2 °F - 57.2 °F 100% 29.94 in 1.0 mi Calm Calm - N/A   Clear
6:54 AM 57.2 °F - 57.2 °F 100% 29.94 in 0.8 mi Calm Calm - N/A   Clear
6:55 AM 57.2 °F - 56.8 °F 99% 29.94 in 0.8 mi Calm Calm - N/A   Clear
6:56 AM 57.2 °F - 57.2 °F 100% 29.94 in 0.5 mi Calm Calm - N/A Fog Fog
7:00 AM 57.2 °F - 57.2 °F 100% 29.94 in 0.5 mi Calm Calm - N/A Fog Fog
7:07 AM 57.2 °F - 57.2 °F 100% 29.94 in 0.5 mi NW 3.5 mph - N/A Fog Fog
7:09 AM 57.2 °F - 57.2 °F 100% 29.94 in 0.8 mi NW 4.6 mph - N/A   Clear
7:11 AM 57.2 °F - 57.2 °F 100% 29.94 in 1.0 mi NW 4.6 mph - N/A   Clear
7:13 AM 57.2 °F - 57.2 °F 100% 29.94 in 1.2 mi North 3.5 mph - N/A   Clear
7:14 AM 57.2 °F - 57.2 °F 100% 29.94 in 1.5 mi North 3.5 mph - N/A   Clear
7:15 AM 57.2 °F - 57.2 °F 100% 29.94 in 2.0 mi Calm Calm - N/A   Clear
7:16 AM 57.2 °F - 57.2 °F 100% 29.94 in 3.0 mi North 3.5 mph - N/A   Clear
7:55 AM 60.6 °F - 60.4 °F 99% 29.95 in 10.0 mi Calm Calm - N/A   Clear
8:55 AM 65.7 °F - 62.4 °F 89% 29.96 in 10.0 mi Calm Calm - N/A   Clear
9:55 AM 71.6 °F - 63.0 °F 74% 29.97 in 10.0 mi Calm Calm - N/A   Clear
10:55 AM 77.0 °F - 61.5 °F 59% 29.96 in 10.0 mi NW 5.8 mph - N/A   Clear
11:55 AM 81.5 °F 82.0 °F 60.1 °F 48% 29.95 in 10.0 mi NNW 9.2 mph - N/A   Clear
12:55 PM 83.5 °F 83.1 °F 58.5 °F 42% 29.94 in 10.0 mi Variable 6.9 mph - N/A   Clear
1:55 PM 85.5 °F 84.1 °F 55.9 °F 36% 29.92 in 10.0 mi North 5.8 mph - N/A   Partly Cloudy
2:55 PM 86.0 °F 84.5 °F 55.0 °F 35% 29.91 in 10.0 mi Calm Calm - N/A   Scattered Clouds
3:55 PM 85.6 °F 84.3 °F 55.9 °F 36% 29.89 in 10.0 mi Variable 3.5 mph - N/A   Mostly Cloudy
4:55 PM 84.2 °F 84.6 °F 61.3 °F 46% 29.88 in 10.0 mi East 8.1 mph - N/A   Mostly Cloudy
5:55 PM 83.7 °F 83.9 °F 61.0 °F 46% 29.88 in 10.0 mi ENE 3.5 mph - N/A   Mostly Cloudy
6:55 PM 84.0 °F 85.4 °F 64.2 °F 51% 29.88 in 10.0 mi SSE 3.5 mph - N/A   Scattered Clouds
7:55 PM 76.6 °F - 67.8 °F 74% 29.91 in 10.0 mi Calm Calm - N/A   Mostly Cloudy
8:55 PM 73.0 °F - 66.2 °F 79% 29.92 in 10.0 mi Calm Calm - N/A   Mostly Cloudy
9:55 PM 74.1 °F - 64.6 °F 72% 29.94 in 10.0 mi East 4.6 mph - N/A   Overcast
10:28 PM 75.2 °F - 64.4 °F 69% 29.95 in 10.0 mi East 5.8 mph - N/A   Light Drizzle
10:38 PM 73.4 °F - 62.6 °F 69% 29.95 in 10.0 mi East 6.9 mph - N/A   Partly Cloudy
10:55 PM 74.1 °F - 60.1 °F 61% 29.96 in 10.0 mi East 6.9 mph - 0.00 in   Partly Cloudy
11:55 PM 65.3 °F - 60.4 °F 84% 29.97 in 10.0 mi Calm Calm - N/A   Clear